World > North America > United States > Michigan > Fort Gratiot Township  

Fort Gratiot Township, MI Hourly Weather Updates

Feedback E-mail the Weather

Quick WX

Fort Gratiot Township, MI Weather Maps

°F °C°F °C
Fort Gratiot Township Weather Map
UTC Time: 2/29/2024, 15:01
Your Time:

Fort Gratiot Township, MI Regional Weather

Expires:202402291600;;153089
ASUS43 KDTX 291501
RWRMI 
MICHIGAN HOURLY REGIONAL WEATHER ROUNDUP
NATIONAL WEATHER SERVICE DETROIT/PONTIAC MI
1000 AM EST THU FEB 29 2024

NOTE: "FAIR" INDICATES FEW OR NO CLOUDS BELOW 12,000 FEET WITH NO
SIGNIFICANT WEATHER AND/OR OBSTRUCTION TO VISIBILITY.


MIZ047>049-052>055-059>063-066>070-074>076-081>083-291600-
SOUTHEAST LOWER MICHIGAN
  
CITY           SKY/WX    TMP DP  RH WIND       PRES   REMARKS
ALMA           SUNNY     23   4  43 W8        30.42S WCI  14 TC  -5   
ANN ARBOR      MOSUNNY   25   9  50 NW13      30.43R WCI  14 TC  -4   
BAD AXE        PTSUNNY   20   4  49 W12       30.39R WCI   8 TC  -7   
CARO           MOSUNNY   23   7  49 W10G18    30.41R WCI  13 TC  -5   
DETROIT CITY   SUNNY     26   5  40 NW10G22   30.44R WCI  16 TC  -3   
DETROIT        MOSUNNY   26   8  46 W10       30.45R WCI  16 TC  -3   
FLINT          SUNNY     23   9  55 W12       30.42R WCI  12 TC  -5   
GROSSE ILE     SUNNY     27  -1  29 NW9       30.45R WCI  18 TC  -3   
HILLSDALE      SUNNY     24   3  39 W7        30.41R WCI  16 TC  -4   
HOWELL         SUNNY     23   7  51 W12G18    30.42R WCI  12 TC  -5   

CITY           SKY/WX    TMP DP  RH WIND       PRES   REMARKS
JACKSON        MOSUNNY   24   8  50 W10       30.43R WCI  14 TC  -4   
LAMBERTVILLE   MOSUNNY   28  10  46 NW6       30.46R WCI  21 TC  -2   
LANSING        SUNNY     22   6  50 W12       30.43R WCI  10 TC  -6   
LAPEER         PTSUNNY   23   8  52 NW6       30.40S WCI  16 TC  -5   
MASON          SUNNY     24   7  49 NW7       30.43R WCI  16 TC  -4   
MONROE         SUNNY     28   9  45 W13G18    30.45R WCI  17 TC  -2   
MT. CLEMENS    MOSUNNY   25   5  42 W10       30.41R WCI  14 TC  -4   
PONTIAC        MOSUNNY   23   4  44 W17G26    30.40R WCI   9 TC  -5   
PORT HOPE        N/A     21   5  50 W16G28    30.37R WCI   7 TC  -6   
PORT HURON     CLOUDY    23   9  54 W7        30.42  WCI  15 TC  -5   
TRI CITIES     MOSUNNY   22   8  55 W10       30.42R WCI  11 TC  -6   
MIDLAND        SUNNY     23   6  49 W10G18    30.42R WCI  12 TC  -5   
TROY           SUNNY     25   3  39 NW10G17   30.45S WCI  15 TC  -4   
SAGINAW HB     CLOUDY    23   9  54 W13       30.42R WCI  11 TC  -5   
$$

SKY/WX - Weather  TMP - Temperature  DP - Dew Point  RH - Humidity
WIND - Wind Direction/Speed PRES - Barometric Pressure VSB - Visibility
WCI - Wind Chill Index E13G22 Wind - East Wind 13 mph/Gusts of 22 mph

Trending Headlines

Trending Entertainment Headlines

Fort Gratiot Township Radar Loop

Use the map search tool if you want to place a location marker on the radar map...

Fort Gratiot Township Quick Facts

National Two Day Weather Forecast


E-mail the Fort Gratiot Township Weather Forecast

Voice your opinion or tell us about page issues...